Weather History for South Lake Tahoe, CA

Change the Weather History Date:

Monday, November 28, 2011

  Actual Average Record
Temperature  
Mean Temperature 45 °F 32 °F  
Max Temperature 61 °F 46 °F 63 °F (1980)
Min Temperature 28 °F 19 °F -2 °F (1975)
Degree Days  
Heating Degree Days 20 33  
Month to date heating degree days 764 795  
Since 1 July heating degree days 1736 2027  
Cooling Degree Days 0 0  
Month to date cooling degree days 0 0  
Year to date cooling degree days 19 31  
Moisture  
Dew Point 12 °F    
Average Humidity 34    
Maximum Humidity 58    
Minimum Humidity 9    
Precipitation  
Precipitation 0.00 in - 1.78 in (1984)
Month to date precipitation 0.61  
Year to date precipitation 15.57  
Snow  
Snow 0.00 in - - ()
Month to date snowfall 0.0  
Snow Depth 0.00 in    
Sea Level Pressure  
Sea Level Pressure 30.29 in    
Wind  
Wind Speed 4 mph (SSW)    
Max Wind Speed 23 mph    
Max Gust Speed 32 mph    
Visibility 10 miles    
Events      
T = Trace of Precipitation, MM = Missing Value Source: NWS Daily Summary

Daily Weather History Graph

Daily Weather History Graph

Search for Another Location

Airport:

Trip Planner

Search our weather history database for the weather conditions in past years. The results will help you decide how hot, cold, wet, or windy it might be!

Date:

Astronomy

Nov. 28, 2011 Rise Set
Actual Time 6:56 AM PST 4:39 PM PST
Civil Twilight 6:27 AM PST 5:08 PM PST
Nautical Twilight 5:54 AM PST 5:41 PM PST
Astronomical Twilight 5:22 AM PST 6:13 PM PST
Moon 10:09 AM PST (11/28) 8:31 PM PST (11/28)
Length of Visible Light 10h 41m
Length of Day
9h 42m
Waxing Crescent, 16% of the Moon is Illuminated
Nov 28
Waxing Crescent
Dec 2
First Quarter
Dec 10
Full
Dec 17
Last Quarter
Dec 24
New

Hourly Weather History & Observations

Time (PST) Temp. Windchill Dew Point Humidity Pressure Visibility Wind Dir Wind Speed Gust Speed Precip Events Conditions
12:53 AM 43.0 °F - 12.9 °F 30% 30.29 in 10.0 mi Calm Calm - N/A   Clear
1:53 AM 46.9 °F - 12.0 °F 24% 30.27 in 10.0 mi SSW 5.8 mph - N/A   Clear
2:53 AM 45.0 °F 42.6 °F 14.0 °F 29% 30.28 in 10.0 mi SSW 4.6 mph - N/A   Clear
3:53 AM 37.9 °F - 15.1 °F 39% 30.30 in 10.0 mi Calm Calm - N/A   Clear
4:53 AM 36.0 °F - 15.1 °F 43% 30.30 in 10.0 mi Calm Calm - N/A   Clear
5:53 AM 35.1 °F - 14.0 °F 42% 30.31 in 10.0 mi Calm Calm - N/A   Clear
6:53 AM 30.9 °F - 16.0 °F 54% 30.34 in 10.0 mi Calm Calm - N/A   Clear
7:53 AM 34.0 °F - 16.0 °F 48% 30.34 in 10.0 mi Calm Calm - N/A   Clear
8:53 AM 42.1 °F - 19.9 °F 41% 30.30 in 10.0 mi Calm Calm - N/A   Clear
9:53 AM 55.9 °F - 6.1 °F 14% 30.27 in 10.0 mi SE 6.9 mph - N/A   Clear
10:53 AM 57.9 °F - 6.1 °F 13% 30.25 in 10.0 mi Variable 6.9 mph 17.3 mph N/A   Clear
11:53 AM 60.1 °F - 1.0 °F 9% 30.23 in 10.0 mi SSW 12.7 mph 24.2 mph N/A   Clear
12:53 PM 61.0 °F - 3.0 °F 10% 30.23 in 10.0 mi SSW 13.8 mph 23.0 mph N/A   Clear
1:53 PM 60.1 °F - 7.0 °F 12% 30.20 in 10.0 mi South 13.8 mph 32.2 mph N/A   Clear
2:53 PM 59.0 °F - 5.0 °F 12% 30.22 in 10.0 mi SSW 11.5 mph 25.3 mph N/A   Clear
3:53 PM 55.9 °F - 9.0 °F 15% 30.25 in 10.0 mi South 11.5 mph - N/A   Clear
4:53 PM 46.0 °F - 14.0 °F 28% 30.29 in 10.0 mi Calm Calm - N/A   Clear
5:53 PM 42.1 °F 40.2 °F 15.1 °F 34% 30.32 in 10.0 mi SSW 3.5 mph - N/A   Clear
6:53 PM 37.0 °F - 16.0 °F 42% 30.35 in 10.0 mi Calm Calm - N/A   Clear
7:53 PM 35.1 °F 32.2 °F 15.1 °F 44% 30.35 in 10.0 mi SSW 3.5 mph - N/A   Clear
8:53 PM 32.0 °F 28.7 °F 15.1 °F 50% 30.33 in 10.0 mi SSW 3.5 mph - N/A   Clear
9:53 PM 30.9 °F - 16.0 °F 54% 30.28 in 10.0 mi Calm Calm - N/A   Clear
10:53 PM 30.9 °F 27.5 °F 17.1 °F 57% 30.29 in 10.0 mi SSW 3.5 mph - N/A   Clear
11:53 PM 28.9 °F 25.2 °F 17.1 °F 61% 30.28 in 10.0 mi South 3.5 mph - N/A   Clear